CZ-3B DEB, 40158

Orbit data source: Space-Track

CZ-3B DEB, 40158 is space debris in HEO originally from a launch on Sat, 04 Sep 2010 UTC launched from the Xichang Space Center, China (XSC). Debris objects in space refer to the collection of defunct objects orbiting the Earth. Examples of debris include non-operational satellites, rocket bodies, and fragments generated from explosions, collisions, or faulty payload assembly.

Loading next visibility...
Identifier
40158, 2010-042K
Orbit
HEO
Last TLE update
2 months ago
Origin
Manufacturer
CALT
Mission
Spacecraft
Bus & Motor
Unknown
Mass
Unknown
Launch date (UTC)
2010-09-04 (15 years ago)
Launch vehicle
Unknown
Launch site
Xichang Space Center, China (XSC)
Object type
Payload
Rocket body
Debris
Shape & HBR
Unknown
Radar Cross Section
Medium (>0.1 m² and <1 m²)

Expand to show TLE details & history

TLE from 2 months ago
0 CZ-3B DEB
1 40158U 10042K   25077.29840600 -.00000173  00000-0  00000-0 0  9997
2 40158  26.8698 330.1051 7314626 248.6652 346.8950  1.88756812 78134
Epoch: 2025-03-18T07:09Z
Definitive object data (Epoch: 2025-03-18T07:09:42.278Z)
Latitude
7.28634°
Longitude
-147.94389°
Altitude
5,676.694 km
Speed
7.191 km/s
True Right ascension
09h 02m 20s
True Declination
7° 15' 39"
Sunlit
Object was in daylight at TLE epoch
Visualization TLE readout
Latitude
16.20997°
Longitude
68.80763°
Altitude
17,039.788 km
Speed
4.431 km/s
Apparent Right ascension
00h 05m 16s
Apparent Declination
5° 28' 18"
Sunlit
Object is in daylight
Visualization observer readout
Local Sidereal Time
15:08:23
Azimuth
53.986° ENE
Elevation
-28.117°
Doppler factor
1
Orbital elements
Apogee altitude
41,514.436 km
Perigee altitude
1,049.657 km
Semi-major axis
27,660.184 km
Eccentricity
0.7314626
Inclination
26.8698°
RAAN
330.1051°
Arg. of periapsis
248.6652°
True anomaly
274.35615°
Mean anomaly
346.895°
Eccentric anomaly
319.89991°
Mean motion
0.4718 °/min
BSTAR
Unknown
Orbital period
763.03 mins
Loading maneuver chart data...
Loading SW <> Apogee altitude chart data...
Loading historical data...
Loading historical data...
Loading historical data...
Loading historical data...
Loading historical data...
Loading historical data...
Loading historical data...

CZ-3B DEB Visibility forecast

Observer location: undefined°, undefined°

Span
Click to sort rows by Start time (UTC) header in descending order
Start Az.
Max El. time (UTC)
Max El. Az.
Max El.
End time (UTC)
End Az.
108 mins2025-05-09 14:26:28.157Z71.744° E2025-05-09 15:28:28.157Z76.269° E11.788°2025-05-09 16:14:28.157Z79.296° E
323 mins2025-05-09 19:36:28.157Z267.502° W2025-05-09 21:17:28.157Z273.578° WNW23.645°2025-05-10 00:59:28.157Z290.459° WNW
|